TimePDT,TemperatureF,Dew PointF,Humidity,Sea Level PressureIn,VisibilityMPH,Wind Direction,Wind SpeedMPH,Gust SpeedMPH,PrecipitationIn,Events,Conditions,WindDirDegrees,DateUTC
12:00 AM,39.2,35.6,87,30.17,10.0,SSW,6.9,-,N/A,,Mostly Cloudy,200,2014-03-20 07:00:00
1:00 AM,39.2,33.8,81,30.18,10.0,South,9.2,-,N/A,,Scattered Clouds,180,2014-03-20 08:00:00
2:00 AM,39.2,33.8,81,30.20,10.0,South,10.4,-,N/A,,Mostly Cloudy,180,2014-03-20 09:00:00
3:00 AM,37.4,32.0,81,30.22,10.0,South,9.2,-,N/A,,Mostly Cloudy,170,2014-03-20 10:00:00
4:00 AM,37.4,33.8,87,30.22,10.0,South,8.1,-,N/A,,Mostly Cloudy,170,2014-03-20 11:00:00
5:00 AM,37,32,75,30.24,10,South,9.2,,,,Mostly Cloudy,180,2014-03-20 12:00:00
5:00 AM,37.4,32.0,81,30.23,10.0,South,9.2,-,N/A,,Mostly Cloudy,170,2014-03-20 12:00:00
6:00 AM,33.8,30.2,87,30.25,15.0,SW,4.6,-,N/A,,Partly Cloudy,220,2014-03-20 13:00:00
7:00 AM,35.6,32.0,87,30.26,25.0,WSW,3.5,-,N/A,,Scattered Clouds,240,2014-03-20 14:00:00
8:00 AM,33.8,32.0,93,30.28,25.0,SW,3.5,-,N/A,,Mostly Cloudy,230,2014-03-20 15:00:00
9:00 AM,39.2,33.8,81,30.29,25.0,SW,4.6,-,N/A,,Mostly Cloudy,230,2014-03-20 16:00:00
10:00 AM,42.8,35.6,76,30.31,20.0,SSW,8.1,-,N/A,,Mostly Cloudy,210,2014-03-20 17:00:00
11:00 AM,45,34,55,30.32,19,WSW,8.1,,,,Mostly Cloudy,250,2014-03-20 18:00:00
11:00 AM,44.6,33.8,66,30.32,20.0,WSW,6.9,-,N/A,,Mostly Cloudy,240,2014-03-20 18:00:00
12:00 PM,46.4,32.0,57,30.32,20.0,SW,11.5,-,N/A,,Mostly Cloudy,230,2014-03-20 19:00:00
1:00 PM,48.2,30.2,50,30.32,25.0,SW,9.2,-,N/A,,Mostly Cloudy,220,2014-03-20 20:00:00
2:00 PM,46.4,28.4,50,30.33,25.0,WSW,13.8,20.7,N/A,,Mostly Cloudy,250,2014-03-20 21:00:00
3:00 PM,48.2,26.6,43,30.32,25.0,WSW,13.8,20.7,N/A,,Scattered Clouds,240,2014-03-20 22:00:00
4:00 PM,50.0,26.6,40,30.32,25.0,West,11.5,17.3,N/A,,Partly Cloudy,270,2014-03-20 23:00:00
5:00 PM,49,27,29,30.32,25,WSW,11.5,,,,Scattered Clouds,240,2014-03-21 00:00:00
5:00 PM,48.2,26.6,43,30.32,25.0,WSW,10.4,18.4,N/A,,Partly Cloudy,240,2014-03-21 00:00:00
6:00 PM,48.2,26.6,43,30.32,25.0,WSW,9.2,-,N/A,,Partly Cloudy,250,2014-03-21 01:00:00
7:00 PM,44.6,26.6,49,30.33,25.0,WSW,9.2,-,N/A,,Partly Cloudy,240,2014-03-21 02:00:00
8:00 PM,41.0,28.4,61,30.34,30.0,WSW,6.9,-,N/A,,Partly Cloudy,240,2014-03-21 03:00:00
9:00 PM,41.0,28.4,61,30.35,10.0,West,4.6,-,N/A,,Scattered Clouds,260,2014-03-21 04:00:00
10:00 PM,39.2,30.2,70,30.36,10.0,ESE,4.6,-,N/A,,Mostly Cloudy,120,2014-03-21 05:00:00
11:00 PM,38,31,68,30.37,10,ESE,2.3,,,,Mostly Cloudy,120,2014-03-21 06:00:00
11:00 PM,37.4,30.2,75,30.37,10.0,Calm,Calm,-,N/A,,Mostly Cloudy,0,2014-03-21 06:00:00